STARLINK-1276, 45368

Orbit data source: Space-Track

STARLINK-1276, 45368 is a payload satellite owned by SpaceX/Seattle (US) in LEO that was launched on Wed, 18 Mar 2020 UTC via an FALCON 9 launch vehicle from the Air Force Eastern Test Range (AFETR). Payload-class satellites include a variety of spacecraft equipped with specific instruments for various scientific and technological missions. These include communications satellites like Starlink; space stations such as the ISS; scientific satellites like the Hubble; Earth observation satellites from companies like Planet Labs, Umbra, and HawkEye 360; GPS; miniature CubeSats for education and research; and military/defense satellites.

Loading next visibility...
Identifier
45368, 2020-019J
Orbit
LEO
Country
Flag of USUS
Related business
Manufacturer
SpaceX/Seattle
Mission
Partially operational Commercial Communications
Bus & Motor
STARLINK, Unknown motor
Mass
260 kg wet, ~248 kg dry
Launch date (UTC)
2020-03-18 (7 years ago)
Launch vehicle
FALCON 9
Launch site
Air Force Eastern Test Range (AFETR)
Object type
Payload
Rocket body
Debris
Shape & HBR
Box + 1 Pan, 10.1 m
Radar Cross Section
13.562 m², Large (>1 m²)

Expand to show TLE details & history
Last TLE update: 13 hours ago

TLE from 13 hours ago
0 STARLINK-1276
1 45368U 20019J   26267.21261425  .00013020  00000-0  63260-3 0  9990
2 45368  53.0705 344.1257 0001486  42.0294 318.0815 15.18773045359828
Epoch: 2026-09-24T05:06Z
TLE epoch observation values (Epoch: 2026-09-24T05:06:09.871Z)
Latitude
0.00004°
Longitude
-95.46802°
Altitude
509.672 km
Speed
7.611 km/s
True Right ascension
22h 56m 30s
True Declination
0° 00' 00"
Sunlit
Object was in full shadow at epoch
Visualization orbit readout
Latitude
Unknown
Longitude
Unknown
Altitude
Unknown
Speed
Unknown
Apparent Right ascension
Unknown
Apparent Declination
Unknown
Sunlit
N/A
Visualization observer readout
Local Sidereal Time
10:55:55
Azimuth
Unknown
Elevation
Unknown
Doppler factor
Unknown
Orbital elements
Apogee altitude
510.841 km
Perigee altitude
508.794 km
Semi-major axis
6,887.954 km
Eccentricity
0.00015
Inclination
53.0705°
RAAN
344.1257°
Arg. of periapsis
42.0294°
True anomaly
318.07012°
Mean anomaly
318.0815°
Eccentric anomaly
318.07581°
Mean motion
3.79671 °/min
Orbital period
94.82 mins
BSTAR
0.0006326
Loading maneuver chart data...
Computing Atmospheric mass density...
Loading historical data...
Loading historical data...
Loading historical data...
Loading historical data...
Loading historical data...
Loading historical data...
Loading historical data...

Documentation

Showing up to 5 results
|